Regional Weather Roundup
Issued by NWS

Home | Current Version | Previous Version | Graphics & Text | Print | Product List | Glossary Off
Versions: 1 2 3 4 5 6 7 8 9 10 11 12 13 14 15 16 17 18 19 20 21 22 23 24 25 26 27 28 29 30 31 32 33 34 35 36 37 38 39 40 41 42 43 44 45 46 47 48 49 50

000
ASUS43 KTOP 270108
RWRKS

WEATHER ROUNDUP FOR KANSAS
NATIONAL WEATHER SERVICE GOODLAND KS
700 PM CST THU FEB 26 2015

NOTE:  "FAIR" INDICATES FEW OR NO CLOUDS BELOW 12,000 FEET WITH NO
SIGNIFICANT WEATHER AND/OR OBSTRUCTIONS TO VISIBILITY.

KSZ001>006-013>018-027>032-041>047-270200-
NORTHWEST KANSAS

CITY           SKY/WX    TMP DP  RH WIND       PRES   REMARKS
GOODLAND       CLOUDY    17   5  59 NE3       30.30R
HAYS           PTCLDY    16  -9  32 NE8       30.43R
HILL CITY      CLEAR     15  -6  39 NE8       30.42R
RUSSELL        CLEAR     14  -6  40 NE9       30.43R
$$

KSZ061>065-074>080-084>089-270200-
SOUTHWEST KANSAS

CITY           SKY/WX    TMP DP  RH WIND       PRES   REMARKS
DODGE CITY     CLOUDY    20  -3  36 NE10      30.38R WCI   9
ELKHART          N/A     18  10  71 NE9         N/A
GARDEN CITY    CLOUDY    20   4  50 NE9       30.35R
GREAT BEND     FAIR      18  -6  35 NE9       30.44R
LIBERAL        CLOUDY    21   5  49 NE9       30.35R
PRATT          MOCLDY    21  -6  30 NE9       30.43R
$$

KSZ066>073-081>083-090>101-270200-
SOUTHEAST KANSAS

CITY           SKY/WX    TMP DP  RH WIND       PRES   REMARKS
CHANUTE        CLEAR     19   2  47 N8        30.47R
COFFEYVILLE    CLEAR     21   2  43 N10       30.47R WCI  10
HUTCHINSON     CLEAR     19  -4  36 N6        30.46R
MEDICINE LODGE   N/A     21  -3  35 NE10      30.44R WCI  10
NEWTON         CLEAR     16  -4  41 N9        30.46R
PARSONS        CLEAR     21   2  43 N8        30.47R
WICHITA INTL   PTCLDY    21  -4  33 N15       30.46R WCI   8
WICHITA JABRA  PTCLDY    17  -1  45 N9        30.46R
WICHITA MCCONL CLEAR     19  -3  38 N14       30.46R WCI   5
WINFIELD       CLEAR     21  -1  38 N12       30.46R WCI   9
$$

KSZ007>012-019>026-033>040-048>060-102>105-270200-
NORTHEAST KANSAS

CITY           SKY/WX    TMP DP  RH WIND       PRES   REMARKS
CONCORDIA      CLEAR     14  -1  51 NE8       30.49R
EMPORIA        CLEAR     16   0  49 N12       30.47R WCI   3
LAWRENCE       CLEAR     14  -1  51 N10       30.52R WCI   1
MANHATTAN      CLEAR     16   1  51 N8        30.52R
MARYSVILLE     CLEAR     10   1  67 NE8       30.52R
OLATHE IND     CLEAR     14   0  53 N13       30.49R WCI   0
OLATHE EXE     CLEAR     15  -1  49 N9        30.47R
SALINA         CLEAR     19  -4  36 N9        30.50R
TOPEKA BILLARD CLEAR     15  -1  49 N15       30.53R WCI   0
TOPEKA FORBES  CLEAR     16  -2  45 N12       30.49R WCI   3
$$



USA.gov is the U.S. government's official web portal to all federal, state and local government web resources and services.